TimeCDT,TemperatureF,Dew PointF,Humidity,Sea Level PressureIn,VisibilityMPH,Wind Direction,Wind SpeedMPH,Gust SpeedMPH,PrecipitationIn,Events,Conditions,WindDirDegrees,DateUTC
12:03 AM,68.0,68.0,100,29.88,3.0,South,3.5,-,N/A,,Overcast,170,2013-03-19 05:03:00
12:08 AM,68.0,68.0,100,29.87,2.0,South,4.6,-,N/A,,Overcast,170,2013-03-19 05:08:00
12:13 AM,68.0,68.0,100,29.88,1.5,South,3.5,-,N/A,,Overcast,170,2013-03-19 05:13:00
12:18 AM,68.0,68.0,100,29.88,1.2,South,3.5,-,N/A,,Overcast,170,2013-03-19 05:18:00
12:23 AM,68.0,68.0,100,29.88,1.5,SSW,2.3,-,N/A,,Overcast,200,2013-03-19 05:23:00
12:28 AM,68.0,68.0,100,29.88,2.5,South,2.3,-,N/A,,Overcast,190,2013-03-19 05:28:00
12:33 AM,68.0,68.0,100,29.88,4.0,South,3.5,-,N/A,,Overcast,190,2013-03-19 05:33:00
12:38 AM,68.0,68.0,100,29.88,4.0,SSW,4.6,-,N/A,,Overcast,210,2013-03-19 05:38:00
12:53 AM,68.0,68.0,100,29.89,4.0,Variable,1.2,-,N/A,,Overcast,0,2013-03-19 05:53:00
12:58 AM,68.0,67.5,98,29.90,3.0,NE,2.3,-,N/A,,Overcast,40,2013-03-19 05:58:00
1:03 AM,68.0,68.0,100,29.89,3.0,NNW,3.5,-,N/A,,Overcast,340,2013-03-19 06:03:00
1:08 AM,68.0,68.0,100,29.90,2.5,Calm,Calm,-,N/A,,Overcast,350,2013-03-19 06:08:00
1:18 AM,68.0,68.0,100,29.90,3.0,Calm,Calm,-,N/A,,Overcast,0,2013-03-19 06:18:00
1:23 AM,68.0,68.0,100,29.90,4.0,Variable,1.2,-,N/A,,Overcast,0,2013-03-19 06:23:00
1:33 AM,68.0,68.0,100,29.91,6.0,NNE,12.7,20.7,N/A,,Overcast,30,2013-03-19 06:33:00
1:34 AM,68.0,68.0,100,29.91,7.0,NNE,18.4,21.9,N/A,Rain,Light Rain,30,2013-03-19 06:34:00
1:39 AM,66.2,64.4,94,29.91,8.0,NE,16.1,24.2,N/A,Rain,Light Rain,40,2013-03-19 06:39:00
1:49 AM,64.4,62.6,94,29.92,6.0,NNE,8.1,-,N/A,Rain,Rain,20,2013-03-19 06:49:00
1:54 AM,64.4,62.6,94,29.92,5.0,NNE,8.1,-,N/A,Rain,Light Rain,30,2013-03-19 06:54:00
1:58 AM,63.5,62.4,96,29.93,5.0,NNE,5.8,-,0.05,Rain,Light Rain,20,2013-03-19 06:58:00
2:03 AM,62.6,62.6,100,29.92,10.0,NNE,6.9,-,N/A,Rain,Light Rain,30,2013-03-19 07:03:00
2:04 AM,62.6,62.6,100,29.92,10.0,Variable,5.8,-,N/A,,Overcast,0,2013-03-19 07:04:00
2:58 AM,62.8,59.5,89,29.93,10.0,NNE,6.9,-,0.00,,Overcast,30,2013-03-19 07:58:00
3:18 AM,62.6,59.0,88,29.92,10.0,NNE,12.7,-,N/A,,Overcast,30,2013-03-19 08:18:00
3:58 AM,62.4,57.6,84,29.94,10.0,NNE,16.1,24.2,N/A,,Overcast,30,2013-03-19 08:58:00
4:58 AM,61.2,56.7,85,29.97,10.0,NNE,16.1,20.7,N/A,,Overcast,30,2013-03-19 09:58:00
5:03 AM,60.8,57.2,88,29.96,10.0,NNE,17.3,21.9,N/A,,Overcast,30,2013-03-19 10:03:00
5:28 AM,60.8,57.2,88,29.96,10.0,NNE,15.0,20.7,N/A,,Overcast,30,2013-03-19 10:28:00
5:38 AM,60.8,55.4,82,29.97,10.0,NNE,12.7,18.4,N/A,,Mostly Cloudy,30,2013-03-19 10:38:00
5:48 AM,60.8,55.4,82,29.97,10.0,NNE,16.1,20.7,N/A,,Scattered Clouds,30,2013-03-19 10:48:00
5:58 AM,60.3,55.8,85,29.98,10.0,NNE,15.0,21.9,N/A,,Partly Cloudy,30,2013-03-19 10:58:00
6:58 AM,57.4,52.3,83,30.01,10.0,NNE,12.7,23.0,N/A,,Partly Cloudy,30,2013-03-19 11:58:00
7:58 AM,55.8,50.4,82,30.03,10.0,NNE,13.8,19.6,N/A,,Clear,30,2013-03-19 12:58:00
8:58 AM,56.7,50.5,80,30.04,10.0,NE,11.5,-,N/A,,Clear,50,2013-03-19 13:58:00
9:58 AM,61.2,50.2,67,30.04,10.0,NE,9.2,-,N/A,,Clear,50,2013-03-19 14:58:00
10:58 AM,66.2,47.8,52,30.05,10.0,East,9.2,-,N/A,,Clear,80,2013-03-19 15:58:00
11:58 AM,69.4,48.6,47,30.04,10.0,East,9.2,-,N/A,,Clear,80,2013-03-19 16:58:00
12:58 PM,71.8,53.1,52,30.03,10.0,South,6.9,-,N/A,,Clear,170,2013-03-19 17:58:00
1:58 PM,70.0,55.4,60,30.02,10.0,South,8.1,-,N/A,,Mostly Cloudy,180,2013-03-19 18:58:00
2:58 PM,72.5,53.6,51,30.00,10.0,South,8.1,-,N/A,,Overcast,180,2013-03-19 19:58:00
3:58 PM,75.0,52.9,46,29.96,10.0,SSE,6.9,-,N/A,,Clear,160,2013-03-19 20:58:00
4:58 PM,72.7,57.2,58,29.97,10.0,SSE,9.2,-,N/A,,Clear,150,2013-03-19 21:58:00
5:58 PM,70.3,58.5,66,29.95,10.0,SSE,9.2,-,N/A,,Clear,150,2013-03-19 22:58:00
6:58 PM,67.6,58.8,73,29.98,10.0,SSE,5.8,-,N/A,,Scattered Clouds,160,2013-03-19 23:58:00
7:58 PM,65.5,58.8,79,29.99,10.0,Calm,Calm,-,N/A,,Clear,0,2013-03-20 00:58:00
8:58 PM,64.6,58.6,81,30.00,10.0,Calm,Calm,-,N/A,,Clear,0,2013-03-20 01:58:00
9:58 PM,62.8,59.9,90,30.02,10.0,Calm,Calm,-,N/A,,Clear,0,2013-03-20 02:58:00
10:58 PM,61.2,57.4,87,30.02,10.0,NE,8.1,-,N/A,,Partly Cloudy,40,2013-03-20 03:58:00
11:58 PM,58.8,46.9,65,30.02,10.0,NE,6.9,-,N/A,,Clear,50,2013-03-20 04:58:00